EW6754 Weather Reports


Display with metric or nautical units.
time (UTC)temp
F
wind
direction
speed
MPH
gust
MPH
rain 1hr
in
rain 24hr
in
rain mn
in
humidity
%
barometer
mb
20260510123023 80 29 0.0 0.0 0.00 0.09 0.02 81 1016.9
20260510121519 79 106 0.0 0.0 0.00 0.09 0.02 82 1016.8
20260510120014 78 50 0.0 0.0 0.00 0.09 0.02 64 1016.7
20260510114518 76 94 0.0 0.0 0.00 0.09 0.02 52 1016.7
20260510113010 76 330 0.0 0.0 0.00 0.09 0.02 42 1016.6
20260510111509 75 306 0.0 0.0 0.00 0.09 0.02 45 1016.5
20260510110008 74 304 0.0 0.0 0.00 0.09 0.02 46 1016.3
20260510104506 74 304 0.0 0.0 0.00 0.09 0.02 46 1016.2
20260510103005 74 311 0.0 0.0 0.01 0.09 0.02 46 1016.2
20260510101502 74 236 0.0 0.0 0.01 0.09 0.02 48 1016.1
20260510100105 74 207 0.0 0.0 0.01 0.09 0.02 49 1015.8
20260510094605 74 84 0.0 0.0 0.01 0.09 0.02 56 1015.5
20260510093053 75 84 0.0 0.0 0.00 0.08 0.01 74 1015.5
20260510091551 75 311 0.0 0.0 0.00 0.08 0.01 71 1015.2
20260510090052 75 311 0.0 0.0 0.00 0.08 0.01 63 1014.9
20260510084549 75 311 0.0 0.0 0.00 0.08 0.01 64 1015.0
20260510083048 75 311 0.0 0.0 0.00 0.08 0.01 65 1014.5
20260510081547 75 311 0.0 0.0 0.00 0.08 0.01 63 1014.5
20260510080050 75 330 0.0 0.0 0.00 0.08 0.01 65 1014.4
20260510074546 75 235 0.0 0.0 0.00 0.08 0.01 67 1014.4
20260510073047 75 247 0.0 0.0 0.00 0.08 0.01 67 1014.5
20260510071541 75 287 0.0 0.0 0.00 0.08 0.01 69 1014.4
20260510070052 75 285 0.0 0.0 0.00 0.08 0.01 70 1014.5
20260510064543 75 240 0.0 0.0 0.00 0.08 0.01 72 1014.5
20260510063041 75 240 0.0 0.0 0.01 0.08 0.01 74 1014.4
20260510061534 75 224 0.0 0.0 0.01 0.08 0.01 75 1014.5
20260510060038 75 148 0.0 0.0 0.01 0.08 0.01 76 1014.6
20260510054532 75 160 0.0 0.0 0.01 0.08 0.01 76 1014.7
20260510053027 76 101 0.0 0.0 0.00 0.07 0.00 79 1015.0
20260510051524 76 186 0.0 0.0 0.00 0.07 0.00 80 1014.9
20260510050026 76 153 0.0 0.0 0.00 0.07 0.00 80 1014.9
20260510044518 76 155 0.0 0.0 0.00 0.07 0.00 80 1015.0
20260510043013 76 231 0.0 0.0 0.00 0.07 0.00 79 1015.2
20260510041508 76 204 0.0 0.0 0.00 0.07 0.00 79 1015.1
20260510040004 76 214 0.0 0.0 0.00 0.07 0.07 79 1015.3
20260510034504 76 222 0.0 0.0 0.00 0.07 0.07 79 1015.5
20260510033003 76 226 0.0 0.0 0.00 0.07 0.07 79 1015.6
20260510031503 77 160 0.0 0.0 0.00 0.07 0.07 81 1015.7
20260510030003 77 226 0.0 0.0 0.00 0.07 0.07 81 1015.7
20260510024502 78 110 0.0 0.0 0.00 0.07 0.07 81 1015.7
20260510023001 78 103 0.0 0.0 0.00 0.07 0.07 81 1015.7
20260510021504 78 113 0.0 0.0 0.00 0.07 0.07 81 1015.5
20260510020003 78 174 0.0 0.0 0.00 0.07 0.07 81 1015.5
20260510014608 78 111 0.0 0.0 0.00 0.07 0.07 81 1015.5
20260510013058 79 112 0.0 0.0 0.00 0.07 0.07 81 1015.6
20260510011601 79 120 0.0 0.0 0.00 0.07 0.07 80 1015.5
20260510010104 79 147 0.0 0.0 0.00 0.07 0.07 80 1015.4
20260510004559 80 117 0.0 0.0 0.00 0.07 0.07 77 1015.2
20260510003104 79 101 0.0 0.0 0.00 0.07 0.07 78 1015.1
20260510001556 79 98 0.0 0.0 0.00 0.07 0.07 80 1014.9
20260510000057 79 100 0.0 0.0 0.00 0.07 0.07 80 1014.7
20260509234607 79 77 0.0 0.0 0.00 0.07 0.07 79 1014.6
20260509233053 80 122 0.0 0.0 0.00 0.07 0.07 80 1014.4
20260509231552 79 100 0.0 0.0 0.00 0.07 0.07 79 1014.3
20260509230054 79 121 0.0 0.0 0.00 0.07 0.07 80 1014.1
20260509224550 80 124 0.0 0.0 0.07 0.07 0.07 80 1014.0
20260509223056 79 79 0.0 0.0 0.07 0.07 0.07 80 1013.9
20260509221546 80 89 0.0 0.0 0.07 0.07 0.07 81 1013.7
20260509220053 82 124 0.0 0.0 0.07 0.07 0.07 76 1013.6
20260509214540 85 179 0.0 0.0 0.00 0.00 0.00 65 1013.3
20260509213030 85 100 0.0 8.0 0.00 0.00 0.00 66 1013.3
20260509211529 85 116 0.0 0.0 0.00 0.00 0.00 62 1013.2
20260509210028 86 87 0.0 5.0 0.00 0.00 0.00 62 1013.2
20260509204534 87 128 0.0 0.0 0.00 0.00 0.00 59 1013.1
20260509203025 87 148 0.0 6.0 0.00 0.00 0.00 61 1013.2
20260509201524 87 118 1.0 9.0 0.00 0.00 0.00 59 1013.1
20260509200027 88 89 2.0 9.0 0.00 0.00 0.00 58 1013.2
20260509194531 88 58 3.0 16.0 0.00 0.00 0.00 56 1013.3
20260509193033 88 107 0.0 0.0 0.00 0.00 0.00 52 1013.3
20260509191521 89 96 0.0 8.0 0.00 0.00 0.00 52 1013.3
20260509190024 89 110 1.0 14.0 0.00 0.00 0.00 54 1013.4
20260509184520 89 109 3.0 12.0 0.00 0.00 0.00 53 1013.4
20260509183016 89 162 0.0 12.0 0.00 0.00 0.00 52 1013.6
20260509181515 89 128 0.0 16.0 0.00 0.00 0.00 53 1013.7
20260509180014 89 101 1.0 11.0 0.00 0.00 0.00 52 1013.9
20260509174514 90 89 0.0 11.0 0.00 0.00 0.00 52 1014.2
20260509173012 89 162 0.0 3.0 0.00 0.00 0.00 51 1014.3
20260509171514 89 129 0.0 12.0 0.00 0.00 0.00 52 1014.7
20260509170010 89 155 0.0 1.0 0.00 0.00 0.00 52 1014.8
20260509164509 89 113 0.0 9.0 0.00 0.00 0.00 51 1014.8
20260509163016 89 169 0.0 12.0 0.00 0.00 0.00 51 1014.9
20260509161507 89 95 0.0 8.0 0.00 0.00 0.00 50 1015.0
20260509160004 88 63 0.0 11.0 0.00 0.00 0.00 50 1015.1
20260509154503 88 94 0.0 12.0 0.00 0.00 0.00 51 1015.3
20260509153003 88 164 0.0 12.0 0.00 0.00 0.00 53 1015.5
20260509151601 88 103 0.0 4.0 0.00 0.00 0.00 55 1015.5
20260509150058 87 100 0.0 0.0 0.00 0.00 0.00 57 1015.7
20260509144610 86 98 0.0 9.0 0.00 0.00 0.00 56 1015.7
20260509143055 85 79 0.0 0.0 0.00 0.00 0.00 62 1015.8
20260509141552 86 172 0.0 6.0 0.00 0.00 0.00 62 1015.8
20260509134551 85 141 0.0 0.0 0.00 0.00 0.00 65 1015.7
20260509133046 85 115 0.0 0.0 0.00 0.00 0.00 64 1015.7
20260509131553 84 86 0.0 6.0 0.00 0.00 0.00 67 1015.7
20260509130044 83 66 0.0 10.0 0.00 0.00 0.00 68 1015.7
20260509124543 82 111 0.0 0.0 0.00 0.00 0.00 73 1015.7